Hot Springs, VA

7:49 AM EDT on August 27, 2016 (GMT -0400)
Ingalls

Weather History for KHSP - January, 2011

Change the Weather History Date:

Saturday, January 1, 2011

  Actual Average Record
Temperature  
Mean Temperature 48 °F -  
Max Temperature 51 °F 34 °F 53 °F (2007)
Min Temperature 44 °F 21 °F 6 °F (2002)
Degree Days  
Heating Degree Days 18    
Moisture  
Dew Point 48 °F    
Average Humidity 97    
Maximum Humidity 100    
Minimum Humidity 82    
Precipitation  
Precipitation 0.00 in - - ()
Sea Level Pressure  
Sea Level Pressure 30.10 in    
Wind  
Wind Speed 12 mph (SW)    
Max Wind Speed 24 mph    
Max Gust Speed 34 mph    
Visibility 10 miles    
Events      
Averages and records for this station are not official NWS values.
T = Trace of Precipitation, MM = Missing Value Source: NWS Daily Summary

Daily Weather History Graph

Daily Weather History Graph

Search for Another Location

Airport or City:

Trip Planner

Search our weather history database for the weather conditions in past years. The results will help you decide how hot, cold, wet, or windy it might be!

Date:

Astronomy

Jan. 01, 2011 Rise Set
Actual Time 7:35 AM EST 5:10 PM EST
Civil Twilight 7:05 AM EST 5:39 PM EST
Nautical Twilight 6:33 AM EST 6:12 PM EST
Astronomical Twilight 6:01 AM EST 6:44 PM EST
Moon 5:06 AM EST (1/1) 2:46 PM EST (1/1)
Length of Visible Light 10h 34m
Length of Day
9h 35m
Waning Crescent, 8% of the Moon is Illuminated
Jan 1
Waning Crescent
Jan 4
New
Jan 12
First Quarter
Jan 19
Full
Jan 26
Last Quarter

Hourly Weather History & Observations

Time (EST) Temp. Windchill Dew Point Humidity Pressure Visibility Wind Dir Wind Speed Gust Speed Precip Events Conditions
12:00 AM 48.2 °F - 42.8 °F 82% 30.19 in 10.0 mi SW 6.9 mph - N/A   Clear
12:20 AM 48.2 °F - 42.8 °F 82% 30.18 in 10.0 mi South 9.2 mph - N/A   Clear
12:40 AM 48.2 °F - 42.8 °F 82% 30.17 in 10.0 mi South 9.2 mph - N/A   Clear
1:00 AM 46.4 °F 40.7 °F 42.8 °F 87% 30.15 in 10.0 mi South 12.7 mph - N/A   Clear
1:20 AM 46.4 °F 42.4 °F 42.8 °F 87% 30.16 in 10.0 mi SW 8.1 mph - N/A   Clear
1:40 AM 48.2 °F - 44.6 °F 87% 30.16 in 10.0 mi SSW 5.8 mph - N/A   Clear
2:00 AM 46.4 °F 43.5 °F 42.8 °F 87% 30.16 in 10.0 mi South 5.8 mph - N/A   Clear
2:20 AM 46.4 °F 43.5 °F 44.6 °F 93% 30.16 in 10.0 mi SSW 5.8 mph - N/A   Clear
2:40 AM 48.2 °F - 44.6 °F 87% 30.16 in 10.0 mi WSW 10.4 mph - N/A   Clear
3:00 AM 48.2 °F - 44.6 °F 87% 30.14 in 10.0 mi SSW 6.9 mph - N/A   Clear
3:20 AM 44.6 °F 39.7 °F 44.6 °F 100% 30.12 in 10.0 mi South 9.2 mph - N/A   Clear
3:40 AM 44.6 °F 37.8 °F 44.6 °F 100% 30.13 in 10.0 mi South 15.0 mph 21.9 mph N/A   Clear
4:00 AM 46.4 °F 41.9 °F 46.4 °F 100% 30.12 in 10.0 mi SW 9.2 mph - N/A   Clear
4:20 AM 44.6 °F 40.7 °F 44.6 °F 100% 30.11 in 10.0 mi South 6.9 mph - N/A   Clear
5:20 AM 46.4 °F 40.7 °F 46.4 °F 100% 30.11 in 10.0 mi SW 12.7 mph 19.6 mph N/A   Clear
5:40 AM 46.4 °F 41.5 °F 46.4 °F 100% 30.11 in 10.0 mi SW 10.4 mph 18.4 mph N/A   Clear
6:00 AM 46.4 °F 40.7 °F 46.4 °F 100% 30.13 in 10.0 mi SW 12.7 mph 17.3 mph N/A   Scattered Clouds
6:20 AM 46.4 °F 40.1 °F 46.4 °F 100% 30.13 in 10.0 mi SW 15.0 mph 23.0 mph N/A   Overcast
7:00 AM 46.4 °F 43.5 °F 46.4 °F 100% 30.13 in 10.0 mi WSW 5.8 mph - N/A   Overcast
7:20 AM 46.4 °F 45.2 °F 46.4 °F 100% 30.12 in 10.0 mi SW 3.5 mph - N/A   Overcast
7:40 AM 46.4 °F 41.1 °F 46.4 °F 100% 30.13 in 10.0 mi SW 11.5 mph 19.6 mph N/A   Overcast
8:00 AM 46.4 °F 40.7 °F 46.4 °F 100% 30.13 in 10.0 mi South 12.7 mph 18.4 mph N/A   Overcast
8:20 AM 46.4 °F 39.8 °F 46.4 °F 100% 30.13 in 10.0 mi South 16.1 mph 25.3 mph N/A   Overcast
8:40 AM 48.2 °F - 48.2 °F 100% 30.13 in 10.0 mi SSW 12.7 mph 27.6 mph N/A   Overcast
9:00 AM 48.2 °F - 48.2 °F 100% 30.13 in 10.0 mi SSW 16.1 mph 27.6 mph N/A   Mostly Cloudy
9:20 AM 48.2 °F - 46.4 °F 93% 30.13 in 10.0 mi SSW 10.4 mph 26.5 mph N/A   Mostly Cloudy
9:40 AM 48.2 °F - 48.2 °F 100% 30.13 in 10.0 mi SSW 12.7 mph 25.3 mph N/A   Mostly Cloudy
10:00 AM 48.2 °F - 48.2 °F 100% 30.14 in 10.0 mi SSW 12.7 mph 26.5 mph N/A   Overcast
10:20 AM 48.2 °F - 48.2 °F 100% 30.13 in 10.0 mi SW 16.1 mph 28.8 mph N/A   Mostly Cloudy
10:40 AM 48.2 °F - 48.2 °F 100% 30.14 in 10.0 mi SW 21.9 mph 28.8 mph N/A   Mostly Cloudy
11:00 AM 48.2 °F - 48.2 °F 100% 30.13 in 10.0 mi SW 20.7 mph 25.3 mph N/A   Mostly Cloudy
11:20 AM 50.0 °F - 48.2 °F 94% 30.12 in 10.0 mi SW 24.2 mph 34.5 mph N/A   Mostly Cloudy
11:40 AM 50.0 °F - 48.2 °F 94% 30.11 in 10.0 mi WSW 23.0 mph 34.5 mph N/A   Scattered Clouds
12:00 PM 50.0 °F - 48.2 °F 94% 30.12 in 10.0 mi WSW 23.0 mph 32.2 mph N/A   Scattered Clouds
12:20 PM 48.2 °F - 48.2 °F 100% 30.10 in 10.0 mi WSW 20.7 mph 26.5 mph N/A   Mostly Cloudy
12:40 PM 50.0 °F - 50.0 °F 100% 30.09 in 7.0 mi WSW 19.6 mph 26.5 mph N/A   Mostly Cloudy
1:00 PM 51.8 °F - 50.0 °F 94% 30.09 in 10.0 mi SW 21.9 mph 31.1 mph N/A   Mostly Cloudy
1:20 PM 51.8 °F - 50.0 °F 94% 30.07 in 10.0 mi SW 24.2 mph 29.9 mph N/A   Scattered Clouds
1:40 PM 51.8 °F - 48.2 °F 88% 30.06 in 7.0 mi SW 20.7 mph 29.9 mph N/A   Mostly Cloudy
2:00 PM 51.8 °F - 50.0 °F 94% 30.05 in 5.0 mi SW 18.4 mph 28.8 mph N/A   Overcast
2:20 PM 50.0 °F - 50.0 °F 100% 30.05 in 4.0 mi SW 17.3 mph 28.8 mph N/A   Overcast
3:00 PM 50.0 °F - 50.0 °F 100% 30.05 in 10.0 mi SSW 16.1 mph 27.6 mph N/A   Scattered Clouds
3:20 PM 51.8 °F - 50.0 °F 94% 30.04 in 10.0 mi SW 18.4 mph 27.6 mph N/A   Scattered Clouds
3:40 PM 50.0 °F - 50.0 °F 100% 30.03 in 10.0 mi SSW 16.1 mph 24.2 mph N/A   Scattered Clouds
4:00 PM 50.0 °F - 50.0 °F 100% 30.03 in 10.0 mi SSW 10.4 mph 25.3 mph N/A   Scattered Clouds
4:20 PM 50.0 °F - 50.0 °F 100% 30.04 in 10.0 mi SW 16.1 mph 24.2 mph N/A   Scattered Clouds
4:40 PM 51.8 °F - 51.8 °F 100% 30.03 in 10.0 mi SSW 12.7 mph 27.6 mph N/A   Scattered Clouds
5:00 PM 51.8 °F - 51.8 °F 100% 30.05 in 10.0 mi SW 17.3 mph 27.6 mph N/A   Mostly Cloudy
5:20 PM 51.8 °F - 51.8 °F 100% 30.04 in 10.0 mi SSW 16.1 mph 29.9 mph N/A   Mostly Cloudy
5:40 PM 50.0 °F - 50.0 °F 100% 30.04 in 10.0 mi SSW 16.1 mph 24.2 mph N/A   Overcast
6:23 PM 51.8 °F - 51.8 °F 100% 30.05 in 10.0 mi SSW 15.0 mph 25.3 mph N/A   Overcast
7:00 PM 51.8 °F - 51.8 °F 100% 30.05 in 10.0 mi SSW 13.8 mph 24.2 mph N/A   Overcast
7:03 PM 51.8 °F - 51.8 °F 100% 30.05 in 10.0 mi SSW 15.0 mph 23.0 mph N/A   Overcast
7:20 PM 51.8 °F - 51.8 °F 100% 30.06 in 10.0 mi SSW 13.8 mph 24.2 mph N/A   Overcast
7:40 PM 51.8 °F - 51.8 °F 100% 30.06 in 10.0 mi SSW 15.0 mph 23.0 mph N/A   Overcast
8:00 PM 51.8 °F - 51.8 °F 100% 30.06 in 10.0 mi SW 18.4 mph 26.5 mph N/A   Mostly Cloudy
8:20 PM 51.8 °F - 51.8 °F 100% 30.05 in 10.0 mi SW 17.3 mph 24.2 mph N/A   Mostly Cloudy
8:40 PM 51.8 °F - 51.8 °F 100% 30.05 in 10.0 mi SW 15.0 mph 24.2 mph N/A   Overcast
9:00 PM 51.8 °F - 51.8 °F 100% 30.05 in 10.0 mi SW 18.4 mph 28.8 mph N/A   Overcast
9:20 PM 51.8 °F - 51.8 °F 100% 30.04 in 10.0 mi SW 20.7 mph 27.6 mph N/A   Overcast
9:40 PM 51.8 °F - 51.8 °F 100% 30.05 in 10.0 mi SW 18.4 mph 26.5 mph N/A   Overcast
10:00 PM 50.0 °F - 50.0 °F 100% 30.04 in 0.5 mi SW 16.1 mph 25.3 mph N/A   Overcast
10:20 PM 50.0 °F - 50.0 °F 100% 30.04 in 0.2 mi SW 19.6 mph 26.5 mph N/A   Overcast
10:40 PM 50.0 °F - 50.0 °F 100% 30.04 in 0.2 mi SW 18.4 mph 26.5 mph N/A   Overcast
11:00 PM 50.0 °F - 50.0 °F 100% 30.03 in 0.2 mi SW 16.1 mph 25.3 mph N/A   Overcast
11:20 PM 50.0 °F - 50.0 °F 100% 30.03 in 0.8 mi SW 20.7 mph 26.5 mph N/A   Overcast
11:40 PM 51.8 °F - 51.8 °F 100% 30.03 in 5.0 mi SW 18.4 mph 27.6 mph N/A   Overcast